Estación de Yerbas Buenas 2
Ultimos registro cada 15 minutos 27
| N° | Estación | Fecha / Hora | Temperatura | Humedad | Lluvia | Velocidad | Dirección | Radiación | Presion |
| 27 | Yerbas Buenas 2 | 10-05-2026 06:30 | -0,7 | 95,2 | 0 | 0 | 24 | 0,6 | 997 |
| 26 | Yerbas Buenas 2 | 10-05-2026 06:15 | -0,2 | 95,5 | 0 | 0 | 24 | 0,6 | 997 |
| 25 | Yerbas Buenas 2 | 10-05-2026 06:00 | -0,8 | 95 | 0 | 0 | 24 | 0,6 | 997 |
| 24 | Yerbas Buenas 2 | 10-05-2026 05:45 | -0,7 | 94,8 | 0 | 0 | 24 | 0,6 | 997,1 |
| 23 | Yerbas Buenas 2 | 10-05-2026 05:30 | -0,5 | 94,4 | 0 | 0 | 24 | 0,6 | 997 |
| 22 | Yerbas Buenas 2 | 10-05-2026 05:15 | -0,2 | 94,4 | 0 | 0 | 24 | 0,6 | 997 |
| 21 | Yerbas Buenas 2 | 10-05-2026 05:00 | 0,5 | 94,9 | 0 | 0,3 | 45 | 0,6 | 996,9 |
| 20 | Yerbas Buenas 2 | 10-05-2026 04:45 | -0,2 | 93,5 | 0 | 0 | 86 | 0,6 | 996,9 |
| 19 | Yerbas Buenas 2 | 10-05-2026 04:30 | 0,8 | 94,5 | 0 | 0 | 86 | 0,6 | 996,9 |
| 18 | Yerbas Buenas 2 | 10-05-2026 04:15 | 0,1 | 93 | 0 | 0 | 119 | 0,6 | 996,9 |
| 17 | Yerbas Buenas 2 | 10-05-2026 04:00 | 0,6 | 92,3 | 0 | 0 | 202 | 0,6 | 997,1 |
| 16 | Yerbas Buenas 2 | 10-05-2026 03:45 | 1,8 | 92,8 | 0 | 0 | 202 | 0,6 | 997,1 |
| 15 | Yerbas Buenas 2 | 10-05-2026 03:30 | 2,3 | 91,9 | 0 | 0 | 202 | 0,6 | 997,1 |
| 14 | Yerbas Buenas 2 | 10-05-2026 03:15 | 2,6 | 94,4 | 0 | 0 | 234 | 0,6 | 997,1 |
| 13 | Yerbas Buenas 2 | 10-05-2026 03:00 | 2,9 | 92,1 | 0 | 0 | 250 | 0,6 | 997,1 |
| 12 | Yerbas Buenas 2 | 10-05-2026 02:45 | 3 | 90,3 | 0 | 0 | 250 | 0,6 | 997,2 |
| 11 | Yerbas Buenas 2 | 10-05-2026 02:30 | 4,5 | 91 | 0 | 0 | 204 | 0,6 | 997,3 |
| 10 | Yerbas Buenas 2 | 10-05-2026 02:15 | 3,9 | 89,6 | 0 | 0 | 199 | 0,6 | 997,4 |
| 9 | Yerbas Buenas 2 | 10-05-2026 02:00 | 4,4 | 91,2 | 0 | 0 | 199 | 0,6 | 997,6 |
| 8 | Yerbas Buenas 2 | 10-05-2026 01:45 | 5,3 | 88,4 | 0 | 0 | 220 | 0,6 | 997,8 |
| 7 | Yerbas Buenas 2 | 10-05-2026 01:30 | 5,7 | 87,3 | 0 | 0 | 206 | 0,6 | 997,7 |
| 6 | Yerbas Buenas 2 | 10-05-2026 01:15 | 6,1 | 87,1 | 0 | 0,3 | 197 | 0,6 | 997,9 |
| 5 | Yerbas Buenas 2 | 10-05-2026 01:00 | 6,8 | 85,4 | 0 | 1,3 | 198 | 0,6 | 997,9 |
| 4 | Yerbas Buenas 2 | 10-05-2026 00:45 | 6,5 | 86,8 | 0 | 1 | 205 | 0,6 | 998 |
| 3 | Yerbas Buenas 2 | 10-05-2026 00:30 | 6,4 | 87,1 | 0 | 0,7 | 215 | 0,6 | 998,1 |
| 2 | Yerbas Buenas 2 | 10-05-2026 00:15 | 6,5 | 88 | 0 | 0,3 | 204 | 0,6 | 998,2 |
| 1 | Yerbas Buenas 2 | 10-05-2026 00:00 | 6,9 | 87 | 0 | 0,3 | 174 | 0,6 | 998,3 |